Date,TemperatureHighF,TemperatureAvgF,TemperatureLowF,DewpointHighF,DewpointAvgF,DewpointLowF,HumidityHigh,HumidityAvg,HumidityLow,PressureMaxIn,PressureMinIn,WindSpeedMaxMPH,WindSpeedAvgMPH,GustSpeedMaxMPH,PrecipitationSumIn
2013-1-6,51.1,49.9,48.9,50.8,49.5,48.7,100,99,97,30.98,30.88,12,8,17,0.00
2013-1-7,52.0,51.8,51.8,51.5,51.5,51.5,99,99,99,30.68,30.66,8,7,8,0.35
2013-1-8,53.1,38.3,32.7,52.1,38.1,32.5,99,99,99,30.92,30.26,10,2,14,0.00
2013-1-9,32.7,32.2,32.0,32.5,31.9,31.8,99,99,99,30.27,30.26,1,0,2,0.00
2013-1-11,45.5,39.9,37.9,45.2,39.6,37.7,99,99,99,29.88,29.83,2,1,2,0.01
2013-1-12,37.6,36.3,35.6,37.1,35.6,34.1,100,97,94,30.04,29.98,4,3,5,0.00
2013-1-13,38.1,35.7,33.8,37.5,35.4,33.6,99,99,99,30.17,30.11,5,3,6,0.08
2013-1-14,35.2,34.6,33.4,35.0,34.4,33.2,99,99,99,30.12,29.91,8,4,9,0.07
2013-1-15,28.8,28.2,27.9,28.5,28.0,27.6,99,99,99,29.96,29.94,1,0,2,0.00
2013-1-18,43.0,37.0,27.5,43.0,36.9,-14.8,100,92,10,30.15,29.86,100,6,100,0.58
2013-1-19,41.7,36.2,32.9,38.8,36.0,30.1,99,99,99,30.25,29.93,8,2,8,0.07
2013-1-20,41.4,34.9,33.6,40.0,33.6,-15.7,100,96,10,30.24,30.03,51,2,51,0.05
2013-1-21,57.4,34.2,29.8,37.7,33.7,9.6,100,98,35,30.04,29.99,37,1,37,0.05
2013-1-22,39.9,29.4,24.3,39.7,29.2,24.0,100,99,96,30.41,30.02,4,1,4,0.00
2013-1-23,38.8,33.5,26.2,38.3,33.1,26.0,100,98,90,30.52,30.37,52,2,52,0.01
2013-1-24,42.8,38.0,34.0,41.9,37.2,32.7,100,97,88,30.65,30.52,12,3,12,0.00
2013-1-25,92.7,44.7,40.5,61.1,43.0,20.6,100,96,33,30.56,30.00,21,8,21,0.60
2013-1-26,54.5,41.7,35.8,54.2,40.5,-14.8,100,97,10,30.37,29.63,25,7,25,0.01
2013-1-27,51.8,36.4,32.0,49.9,38.8,-8.6,100,37,10,30.13,29.64,30,5,30,0.00
2013-1-28,52.9,42.0,32.0,50.6,39.4,-6.6,100,80,10,30.18,29.72,32,12,32,0.00
2013-1-29,76.1,50.5,31.8,74.3,36.0,-15.1,100,66,10,30.10,29.79,118,30,118,0.08
2013-1-30,53.6,43.6,39.9,49.2,42.1,33.3,100,94,82,30.49,29.99,36,13,36,0.06
2013-1-31,50.9,43.3,34.3,46.7,41.0,34.1,100,92,80,30.41,30.16,36,15,37,0.14
2013-2-1,47.5,40.0,32.9,44.8,37.9,30.8,100,92,78,30.58,30.11,21,8,21,0.01
2013-2-2,42.3,30.6,-24.9,40.2,27.5,-63.1,100,89,10,30.94,30.58,7,2,7,0.08
2013-2-3,60.4,46.8,32.0,60.2,46.4,26.8,99,96,39,30.83,30.50,21,10,21,0.14
2013-2-4,111.4,42.3,22.3,76.2,22.3,-26.0,100,61,10,30.60,29.91,93,16,93,0.22
2013-2-5,46.6,39.7,31.3,44.4,37.8,31.0,100,93,83,29.80,29.47,24,12,24,0.02
2013-2-6,46.2,37.2,29.5,36.3,32.9,29.2,100,85,66,30.33,29.79,14,5,14,0.00
2013-2-7,44.6,36.4,28.9,44.2,36.1,28.7,99,99,99,30.33,29.95,27,4,27,0.22
2013-2-8,48.9,40.9,36.5,47.5,40.6,36.2,100,99,96,30.33,30.22,9,3,9,0.00
2013-2-9,54.3,44.3,40.1,54.1,44.0,39.8,100,99,97,30.24,29.70,11,3,11,0.11
2013-2-10,45.3,41.3,39.2,45.1,41.0,38.6,99,99,99,29.70,29.25,10,2,10,0.56
2013-2-11,41.2,38.9,37.8,40.9,38.5,37.4,100,98,95,29.85,29.28,8,2,8,0.02
2013-2-12,45.0,39.7,36.9,43.0,39.5,36.6,100,99,96,30.01,29.84,7,2,8,0.02
2013-2-13,62.2,46.6,36.1,60.4,46.4,28.2,99,99,99,29.99,29.69,20,8,20,0.38
2013-2-14,51.8,44.0,37.6,48.5,42.3,37.3,100,94,77,30.08,29.80,17,7,17,0.01
2013-2-15,54.9,40.8,33.1,47.5,39.3,32.5,100,95,63,30.17,30.08,8,2,8,0.01
2013-2-16,53.8,47.5,39.9,53.8,46.0,-2.6,100,95,10,30.13,30.05,55,6,55,0.00
2013-2-17,53.6,45.7,39.0,44.2,40.5,34.0,94,82,61,30.06,29.96,16,5,16,0.00
2013-2-18,55.2,41.5,36.5,39.5,35.4,32.2,94,80,51,30.11,29.97,10,3,10,0.00
2013-2-19,54.0,38.3,27.7,46.2,35.4,27.5,100,90,61,30.12,30.04,7,2,7,0.00
2013-2-20,49.5,39.2,28.0,45.6,35.2,27.8,100,86,65,30.16,30.07,13,3,13,0.00
2013-2-21,42.3,35.9,31.3,35.3,28.9,26.3,85,76,60,30.21,30.15,13,5,13,0.00
2013-2-22,37.4,34.8,32.7,29.0,26.0,23.9,79,70,63,30.28,30.17,9,3,9,0.00
2013-2-23,37.8,34.5,32.7,32.3,29.5,26.4,89,82,72,30.37,30.26,7,2,7,0.00
2013-2-24,41.0,34.7,28.0,35.0,30.6,24.4,96,85,76,30.50,30.35,5,1,6,0.00
2013-2-25,51.3,36.1,26.1,40.8,31.7,-19.4,100,85,57,30.61,30.48,8,2,8,0.00
2013-2-26,45.3,38.9,27.1,40.2,36.7,26.9,100,92,76,30.68,30.56,11,3,11,0.00
2013-2-27,49.6,41.3,35.2,42.2,38.8,34.0,100,91,72,30.70,30.63,9,3,9,0.00
2013-2-28,49.8,37.6,30.4,44.7,36.7,30.1,100,97,80,30.64,30.52,7,2,7,0.00
2013-3-1,52.7,40.8,27.9,49.5,37.4,27.6,100,89,56,30.55,30.50,10,2,10,0.00
2013-3-2,49.1,35.7,23.5,42.4,33.6,23.3,100,93,72,30.51,30.31,6,1,6,0.00
2013-3-3,55.0,40.1,27.7,42.4,36.3,27.1,100,88,52,30.33,30.07,8,1,8,0.00
2013-3-4,45.7,37.4,27.5,42.6,33.9,27.3,100,88,73,30.08,29.74,7,1,7,0.00
2013-3-5,52.3,40.2,26.1,43.0,37.3,25.8,100,90,64,29.75,29.57,12,5,12,0.00
2013-3-6,54.1,44.8,42.1,48.1,44.5,41.6,100,99,99,29.58,29.46,11,5,11,0.26
2013-3-7,58.8,46.1,44.4,58.6,45.8,41.6,99,99,99,29.46,29.29,13,7,13,0.28
2013-3-8,54.1,48.1,45.3,53.4,47.8,45.1,100,99,95,29.51,29.27,13,5,13,0.05
2013-3-9,48.9,44.1,39.7,48.7,43.9,37.3,99,99,99,29.71,29.49,17,7,17,0.02
2013-3-10,42.6,37.8,33.3,39.7,31.7,18.2,100,80,53,29.96,29.70,23,11,23,0.00
2013-3-11,39.0,31.5,27.1,32.3,25.7,16.3,100,80,50,30.11,29.95,21,8,21,0.01
2013-3-12,46.4,34.5,25.2,33.8,26.8,-23.1,100,74,10,30.14,30.01,11,3,11,0.00
2013-3-13,52.0,37.2,28.2,41.9,33.7,28.0,100,88,60,30.11,30.00,11,3,11,0.01
2013-3-14,49.3,38.0,26.4,45.4,36.4,26.2,100,94,80,30.12,29.74,16,5,16,0.01
2013-3-15,53.2,41.9,29.5,44.7,38.7,29.2,100,89,58,29.74,29.37,18,7,18,0.05
2013-3-16,58.3,38.7,27.9,45.6,32.7,27.6,100,82,39,29.37,29.29,10,2,10,0.00
2013-3-17,48.2,36.0,28.2,47.7,35.8,28.0,100,99,95,29.33,29.13,11,3,11,0.14
2013-3-18,48.7,38.2,34.3,43.7,37.4,34.1,100,97,83,29.48,29.20,10,4,10,0.15
2013-3-19,44.2,35.8,32.5,44.0,35.2,32.3,100,98,91,29.55,29.47,8,3,9,0.24
2013-3-20,48.2,38.3,32.5,47.9,37.0,32.3,100,95,76,29.90,29.55,6,2,6,0.00
2013-3-21,45.5,39.7,34.5,44.2,37.8,32.8,100,93,77,29.90,29.56,24,9,24,0.07
2013-3-22,52.3,40.8,31.5,52.3,40.6,29.1,100,99,96,29.68,29.47,19,10,19,0.21
2013-3-23,41.0,38.2,32.0,40.7,37.0,31.8,100,95,87,29.93,29.67,17,7,17,0.00
2013-3-24,37.9,35.2,32.9,33.7,30.0,23.5,92,81,71,30.07,29.92,16,8,16,0.00
2013-3-25,41.4,36.1,33.4,31.6,26.8,25.1,84,69,55,30.12,30.07,16,8,16,0.00
2013-3-26,42.1,34.2,31.5,38.8,31.0,25.1,97,88,68,30.12,30.04,16,5,16,0.02
2013-3-27,42.3,33.6,28.4,40.1,31.3,-18.5,100,92,10,30.05,30.00,18,3,18,0.05
2013-3-28,47.1,35.7,28.2,37.0,30.1,25.7,100,81,52,30.02,29.92,13,4,13,0.02
2013-3-29,46.4,37.4,33.3,29.5,25.7,23.5,75,63,45,29.93,29.84,12,5,12,0.00
2013-3-30,50.9,37.4,26.4,31.5,25.2,21.2,86,63,37,29.97,29.87,11,2,11,0.00
2013-3-31,44.4,36.6,28.2,31.5,28.0,23.5,85,71,57,29.95,29.83,14,4,14,0.00
2013-4-1,41.7,37.1,32.2,29.3,27.6,26.0,82,69,57,29.96,29.82,15,6,15,0.00
2013-4-2,52.7,40.3,28.9,34.6,27.8,23.3,84,62,39,30.17,29.96,11,5,11,0.00
2013-4-3,54.9,40.4,26.8,37.2,27.9,20.3,96,64,34,30.25,30.17,13,4,13,0.00
2013-4-4,52.7,39.7,29.8,37.1,28.2,24.2,95,66,39,30.25,30.20,14,4,14,0.00
2013-4-5,56.1,39.6,26.8,40.6,29.5,22.6,95,69,39,30.32,30.21,10,4,10,0.00
2013-4-6,61.3,40.7,21.9,39.9,29.0,20.0,100,67,32,30.37,30.23,13,2,13,0.00
2013-4-7,51.6,40.4,31.8,37.7,32.9,29.4,94,76,47,30.24,29.82,14,4,14,0.00
2013-4-8,53.2,43.1,34.7,37.6,34.2,27.3,96,73,46,29.82,29.51,15,6,15,0.00
2013-4-9,48.4,40.0,36.0,36.8,35.1,33.4,96,83,62,29.64,29.48,15,6,15,0.00
2013-4-10,58.5,43.6,36.7,50.2,41.6,35.7,100,93,64,29.64,29.49,8,3,8,0.00
2013-4-11,52.7,43.8,37.0,49.8,43.2,36.8,99,98,87,29.49,29.28,8,2,8,0.38
2013-4-12,63.7,48.8,37.8,50.4,44.4,37.5,100,86,57,29.71,29.30,11,4,11,0.05
2013-4-13,56.1,46.1,34.9,54.4,45.0,34.6,100,96,67,29.71,29.40,25,5,25,0.07
2013-4-14,70.2,53.1,45.7,69.9,51.2,45.4,100,93,75,29.55,29.41,31,12,31,0.41
2013-4-15,66.7,54.0,48.4,50.2,47.8,43.5,100,81,54,29.82,29.49,21,11,21,0.07
2013-4-16,61.0,51.4,39.9,50.2,41.5,33.6,100,71,43,29.94,29.48,30,14,30,0.01
2013-4-17,57.0,46.8,41.4,55.3,44.7,37.8,100,92,83,29.92,29.24,36,6,36,0.22
2013-4-18,56.7,48.9,41.9,50.4,45.5,40.9,100,88,68,30.15,29.31,31,15,32,0.15
2013-4-19,62.8,47.4,36.0,46.5,40.6,35.7,99,80,44,30.50,30.15,10,3,10,0.00
2013-4-20,62.6,48.5,35.1,47.6,41.7,34.3,100,79,49,30.50,30.23,20,6,20,0.00
2013-4-21,59.0,48.4,41.5,53.9,44.8,33.6,100,88,59,30.23,29.97,28,8,28,0.19
2013-4-22,62.8,50.2,42.8,57.8,48.4,42.5,100,94,72,30.00,29.84,23,11,24,0.02
2013-4-23,66.9,54.5,45.9,54.4,49.8,45.6,100,85,60,30.17,29.98,18,8,18,0.00
2013-4-24,60.1,53.1,45.1,57.8,51.9,44.9,100,96,79,30.28,30.06,18,6,18,0.17
2013-4-25,62.4,48.6,41.2,54.6,44.2,38.1,100,86,52,30.25,30.13,19,4,19,0.24
2013-4-26,54.0,43.7,34.5,46.9,37.5,30.7,100,80,52,30.21,30.08,21,6,22,0.02
2013-4-27,64.0,47.3,35.8,42.1,36.9,32.1,100,70,35,30.22,30.13,14,4,14,0.00
2013-4-28,58.5,46.9,39.4,50.8,42.3,36.3,100,84,62,30.15,29.88,17,9,18,0.02
2013-4-29,61.2,47.1,37.0,47.6,39.3,33.4,100,76,46,30.30,29.94,20,9,20,0.00
2013-4-30,65.1,48.5,32.0,45.6,38.3,31.8,100,71,40,30.39,30.29,23,2,23,0.00
2013-5-1,67.1,50.5,38.8,52.2,41.3,30.7,100,74,43,30.34,30.27,12,4,12,0.00
2013-5-2,68.0,51.5,37.0,49.9,43.8,36.8,100,77,49,30.33,30.16,17,5,17,0.00
2013-5-3,60.1,53.1,48.2,53.1,48.7,46.2,100,85,67,30.17,29.89,26,11,26,0.08
2013-5-4,65.1,52.8,41.9,54.3,47.0,41.6,100,83,54,30.03,29.84,21,7,21,0.01
2013-5-5,68.9,56.7,51.3,55.1,51.7,48.0,100,85,54,30.12,30.02,0,0,0,0.00
2013-5-6,73.8,57.0,44.8,59.0,51.5,44.1,100,84,55,30.11,30.03,16,2,16,0.01
2013-5-7,77.9,57.1,41.0,57.4,49.1,40.7,100,77,45,30.06,29.68,14,3,14,0.01
2013-5-8,65.8,53.5,45.7,59.2,50.7,41.6,100,91,61,29.69,29.33,30,10,30,0.00
2013-5-9,55.8,48.1,43.7,54.5,46.7,40.6,100,95,84,29.61,29.20,27,13,27,0.00
2013-5-10,60.6,51.0,44.4,55.8,46.4,39.4,100,86,50,29.75,29.61,27,11,27,0.00
2013-5-11,56.3,47.9,41.5,51.1,44.3,39.6,100,88,63,30.00,29.71,27,10,27,0.00
2013-5-12,59.4,49.3,40.3,56.9,48.2,40.0,100,96,84,30.01,29.81,25,9,25,0.00
2013-5-13,65.3,47.4,14.9,47.4,29.6,-31.7,100,66,10,29.88,29.75,108,26,108,2.14
2013-5-14,64.4,48.7,37.4,47.7,42.2,37.1,100,81,44,29.75,29.40,15,7,15,0.00
2013-5-15,58.6,46.7,39.2,49.5,41.1,35.1,100,82,53,29.58,29.46,21,7,21,0.00
2013-5-16,63.5,46.8,36.5,53.0,43.2,34.5,100,88,57,29.66,29.49,9,2,9,0.00
2013-5-17,68.0,50.3,35.4,50.5,42.6,35.2,100,78,44,29.96,29.65,13,3,13,0.00
2013-5-18,56.3,49.0,44.6,50.6,46.9,41.2,100,93,76,29.96,29.75,13,4,13,0.00
2013-5-19,77.0,58.3,48.4,58.6,51.9,48.1,100,81,49,30.08,29.80,8,2,8,0.00
2013-5-20,59.0,55.0,50.4,56.2,53.4,48.6,100,94,83,30.19,30.05,14,5,14,0.00
2013-5-21,70.9,55.8,47.8,55.0,49.8,46.8,100,82,54,30.24,30.17,16,6,16,0.00
2013-5-22,61.3,52.4,45.0,50.4,43.2,36.0,100,73,50,30.31,30.23,22,7,22,0.00
2013-5-23,59.0,48.1,39.7,43.4,38.9,33.5,95,72,43,30.25,30.12,24,8,24,0.00
2013-5-24,65.3,50.3,40.3,45.0,39.7,36.8,88,69,43,30.25,30.08,17,6,21,0.00
2013-5-25,81.3,58.1,37.6,51.7,44.5,36.3,100,66,30,30.26,30.17,11,1,11,0.00
2013-5-26,74.5,58.6,49.8,63.1,52.3,49.1,100,82,47,30.21,29.78,10,0,11,0.07
2013-5-27,70.2,53.6,44.4,55.1,48.4,40.8,100,85,42,29.79,29.45,0,0,0,0.00
2013-5-28,53.2,49.4,34.0,49.0,45.5,-16.8,100,88,10,29.72,29.52,0,0,0,2.22
2013-5-29,83.8,48.4,21.0,55.1,22.6,-26.9,100,52,10,30.05,29.71,3,0,3,0.00
2013-5-30,85.6,61.0,12.6,56.8,49.8,-0.6,93,69,10,30.19,30.03,6,0,6,0.00
2013-5-31,64.9,54.4,44.2,56.9,47.2,37.8,100,78,44,30.33,30.18,2,0,2,0.07
2013-6-1,74.8,53.9,40.5,58.9,46.7,36.9,100,78,47,30.44,30.32,4,0,4,0.00
2013-6-2,73.2,58.1,50.0,54.6,50.4,44.3,97,77,51,30.50,30.42,0,0,0,0.01
2013-6-3,82.2,61.0,50.7,67.1,56.1,47.9,100,85,56,30.54,30.47,2,0,2,0.05
2013-6-4,104.9,65.9,48.2,68.9,54.4,42.7,100,74,25,30.49,30.30,0,0,0,0.00
2013-6-5,103.5,65.9,47.8,65.1,53.2,43.6,100,70,26,30.30,30.15,0,0,0,0.00
2013-6-6,102.6,65.3,47.3,68.0,54.1,46.7,100,73,30,30.29,30.17,0,0,0,0.00
2013-6-7,109.6,69.0,50.9,71.0,56.4,44.8,100,71,27,30.32,30.27,0,0,0,0.00
2013-6-8,109.6,68.3,45.9,71.8,54.3,43.3,96,67,27,30.32,30.13,0,0,0,0.02
2013-6-9,108.0,61.7,46.8,65.8,49.8,42.3,94,69,22,30.14,29.96,6,0,6,0.01
2013-6-10,68.7,57.6,45.5,55.4,49.7,42.7,100,76,52,29.98,29.83,0,0,4,0.09
2013-6-11,67.1,57.1,51.4,66.8,56.8,51.2,100,99,99,29.83,29.66,0,0,0,0.15
2013-6-12,66.2,57.2,52.5,60.0,55.0,52.3,100,93,67,29.74,29.56,0,0,0,0.18
2013-6-13,63.3,55.1,45.5,59.8,52.3,45.2,100,91,69,29.93,29.56,8,0,8,0.25
2013-6-14,66.2,54.6,45.9,60.5,52.5,45.2,100,93,70,29.93,29.42,3,0,3,0.04
2013-6-15,64.9,54.6,43.7,58.4,51.2,43.4,100,89,61,29.76,29.52,7,1,7,0.05
2013-6-16,67.5,56.8,50.7,59.0,53.6,50.4,100,90,58,29.97,29.75,2,0,2,0.07
2013-6-17,61.0,55.1,48.9,60.5,54.4,48.7,100,98,87,30.07,29.96,2,0,2,0.01
2013-6-18,73.2,58.9,44.1,64.9,54.4,43.8,100,86,59,30.04,29.98,3,1,3,0.00
2013-6-19,70.5,60.6,51.4,58.0,53.0,49.0,100,78,56,30.11,30.04,3,1,3,0.00
2013-6-20,71.8,61.7,49.6,60.3,55.7,49.4,100,82,60,30.07,29.81,2,0,2,0.00
2013-6-21,69.4,60.5,53.4,60.3,55.9,51.8,100,86,56,29.89,29.59,3,1,3,0.00
2013-6-22,64.0,56.3,53.2,60.8,55.3,53.0,100,96,75,29.64,29.44,12,1,12,0.24
2013-6-23,59.2,55.0,49.8,55.2,51.7,45.4,100,89,68,30.21,29.64,8,2,8,0.01
2013-6-24,65.1,56.4,46.6,55.0,50.0,46.3,100,81,56,30.33,30.20,2,0,2,0.00
2013-6-25,70.7,59.7,47.3,59.0,54.7,47.0,100,85,58,30.48,30.32,2,0,2,0.00
2013-6-26,69.8,61.0,51.6,57.3,52.9,49.7,100,76,55,30.55,30.48,2,0,2,0.00
2013-6-27,67.3,58.0,49.3,67.0,57.3,48.1,100,98,81,30.53,30.30,3,0,3,0.15
2013-6-28,65.3,59.6,53.4,64.3,58.9,52.3,100,98,90,30.31,30.14,5,2,6,0.01
2013-6-29,72.9,59.5,50.0,69.7,58.0,49.6,100,95,79,30.28,30.23,4,1,4,0.00
2013-6-30,66.4,59.6,53.2,64.3,55.7,48.5,100,87,68,30.27,30.02,11,1,11,0.02
2013-7-1,66.6,57.2,49.6,55.5,51.7,48.7,100,83,57,30.06,29.94,3,1,3,0.00
2013-7-2,62.8,56.5,52.5,62.5,56.0,51.0,100,98,89,29.94,29.48,3,0,3,0.12
2013-7-3,67.3,59.8,53.1,64.6,58.2,52.6,100,95,79,29.88,29.56,3,1,3,0.00
2013-7-4,63.7,61.2,60.1,63.7,60.9,59.8,100,99,94,29.93,29.83,6,1,6,0.01
2013-7-6,77.9,66.6,53.4,67.2,59.6,52.3,100,80,58,30.49,30.36,3,1,3,0.00
2013-7-7,73.8,66.9,61.3,68.1,64.6,60.3,100,93,76,30.62,30.49,2,0,2,0.00
2013-7-8,78.6,68.6,58.5,66.4,61.9,58.0,100,81,56,30.62,30.51,2,0,2,0.00
2013-7-9,81.5,72.4,58.1,70.6,65.5,57.8,100,80,62,30.52,30.38,2,0,2,0.00
2013-7-10,78.8,67.7,53.8,70.7,62.8,53.5,100,85,62,30.40,30.33,2,0,2,0.00
2013-7-11,80.2,67.8,56.3,68.3,62.4,56.0,100,84,64,30.36,30.30,5,0,5,0.02
2013-7-12,91.6,72.0,53.8,75.1,63.1,53.5,99,77,47,30.32,30.26,2,0,2,0.00
2013-7-13,79.7,70.1,58.6,70.4,64.9,58.4,100,85,65,30.37,30.29,2,0,2,0.00
2013-7-14,86.4,67.8,55.8,71.8,61.0,55.5,100,81,47,30.38,30.25,2,0,2,0.00
2013-7-15,71.1,62.6,55.4,63.0,57.8,53.9,100,85,65,30.32,30.27,2,1,2,0.00
2013-7-16,75.6,67.5,59.4,65.0,61.4,57.5,100,82,60,30.30,30.26,2,0,2,0.01
2013-7-17,80.1,69.1,59.7,66.2,61.7,56.8,100,79,54,30.38,30.29,2,0,2,0.00
2013-7-18,79.7,69.0,54.7,68.7,60.7,54.4,100,77,54,30.41,30.36,2,0,2,0.00
2013-7-19,82.8,71.1,54.0,73.3,64.6,53.7,100,82,58,30.40,30.28,2,0,2,0.00
2013-7-20,78.8,70.3,60.6,72.6,65.4,60.4,100,85,68,30.30,30.20,2,0,2,0.00
2013-7-21,72.0,64.8,59.0,65.3,61.5,58.7,100,90,72,30.21,30.05,4,0,4,0.00
2013-7-22,77.9,68.4,60.4,70.2,65.6,60.2,100,91,74,30.06,29.92,2,0,2,0.01
2013-7-23,77.4,67.4,62.2,70.7,64.6,60.3,100,91,63,29.93,29.83,8,0,8,0.00
2013-7-24,75.4,66.9,59.5,72.0,62.4,59.3,100,86,61,29.87,29.80,5,0,5,0.00
2013-7-25,75.4,64.8,59.5,74.6,63.5,59.3,100,96,72,29.85,29.78,9,0,9,0.00
2013-7-26,80.8,65.4,54.9,73.4,61.5,54.6,100,88,65,29.88,29.82,7,0,7,0.00
2013-7-27,78.8,62.9,52.5,73.8,60.3,52.1,100,92,71,29.85,29.64,2,0,2,0.01
2013-7-28,75.0,63.7,54.0,68.4,60.4,53.7,100,90,67,29.65,29.55,2,0,2,0.13
2013-7-29,72.7,62.9,57.0,68.6,60.5,53.9,100,92,69,29.87,29.60,3,0,3,0.25
2013-7-30,70.7,62.2,51.8,63.4,57.1,51.5,100,85,65,29.92,29.80,2,0,2,0.01
2013-7-31,69.1,60.4,54.9,68.8,60.1,54.6,100,99,88,29.92,29.68,1,0,1,0.24
2013-8-1,72.9,66.4,63.9,72.5,65.8,63.6,100,98,88,29.73,29.54,1,0,1,0.27
2013-8-2,71.1,63.3,55.4,66.5,60.6,55.1,100,91,70,29.68,29.50,2,0,2,0.12
2013-8-3,70.2,59.0,53.1,63.3,57.5,52.8,100,95,68,29.94,29.67,2,0,2,0.38
2013-8-4,70.7,61.9,50.9,67.3,59.9,50.6,100,93,75,29.94,29.85,0,0,0,0.05
2013-8-5,67.3,60.6,55.9,59.5,56.2,50.3,100,86,63,30.00,29.82,0,0,0,0.02
2013-8-6,69.1,61.1,55.0,65.0,57.7,54.5,100,89,69,30.01,29.92,0,0,0,0.01
2013-8-7,72.5,62.8,50.9,66.3,56.4,50.6,100,81,50,30.09,29.94,0,0,0,0.00
2013-8-8,73.9,63.5,55.6,64.0,59.2,55.3,100,87,56,30.08,29.92,0,0,0,0.06
2013-8-9,66.6,60.2,55.9,59.4,56.4,53.4,100,88,68,30.25,29.97,0,0,0,0.00
2013-8-10,70.5,61.7,54.9,62.3,57.3,52.3,100,86,67,30.25,30.09,0,0,0,0.00
2013-8-11,67.8,58.8,51.1,60.2,54.6,50.8,100,87,60,30.11,30.03,1,0,1,0.00
2013-8-12,64.8,57.8,49.1,57.6,52.3,46.9,100,83,55,30.18,30.04,4,0,4,0.00
2013-8-13,68.2,59.9,52.5,67.3,58.6,48.9,100,96,83,30.22,30.15,0,0,0,0.09
2013-8-14,73.0,64.5,56.1,72.7,63.2,55.9,100,96,83,30.18,30.00,2,0,2,0.06
2013-8-15,71.8,64.5,59.9,71.5,64.2,59.6,100,99,93,30.01,29.80,0,0,0,0.53
2013-8-16,68.7,61.2,52.7,65.7,59.2,52.4,100,93,77,29.97,29.89,2,0,2,0.01
2013-8-17,71.6,62.1,53.8,70.4,61.8,53.5,100,99,89,29.90,29.52,3,0,3,0.20
2013-8-18,65.7,57.7,51.6,61.1,55.0,51.4,100,92,70,29.94,29.65,2,0,2,0.00
2013-8-19,68.7,59.0,50.5,63.2,55.9,50.3,100,91,64,30.29,29.94,2,0,2,0.01
2013-8-20,70.3,62.6,56.3,62.6,58.8,56.0,100,88,66,30.31,30.16,0,0,0,0.00
2013-8-21,70.7,64.8,60.4,65.6,62.5,60.2,100,92,79,30.17,30.09,2,0,2,0.00
2013-8-22,71.6,61.5,55.6,65.5,59.5,55.3,100,94,70,30.15,29.95,0,0,0,0.01
2013-8-23,63.1,59.7,54.9,62.9,59.4,54.6,99,99,99,30.00,29.88,2,0,2,0.20
2013-8-24,64.2,56.0,45.5,61.6,54.6,45.2,100,95,75,30.06,29.96,0,0,0,0.09
2013-8-25,66.6,60.3,52.5,63.9,58.8,52.3,100,95,79,30.22,29.97,1,0,1,0.04
2013-8-26,67.3,59.0,50.9,63.9,57.4,50.6,100,95,82,30.22,30.15,0,0,0,0.01
2013-8-27,69.1,62.3,56.8,67.0,61.3,56.6,100,97,85,30.28,30.14,1,0,1,0.02
2013-8-28,68.4,59.8,52.0,60.5,56.4,51.7,100,89,72,30.29,30.16,0,0,1,0.01
2013-8-29,69.6,62.8,56.3,67.0,61.4,56.0,100,95,82,30.18,30.11,2,0,2,0.02
2013-8-30,68.7,60.8,47.3,67.9,59.4,46.9,100,95,80,30.29,30.00,2,0,2,0.04
2013-8-31,64.0,54.6,44.6,54.3,49.9,44.3,100,85,63,30.50,30.29,2,0,2,0.00
2013-9-1,63.7,55.7,46.9,58.1,52.7,46.7,100,90,75,30.50,30.37,2,0,2,0.00
2013-9-2,69.3,61.8,55.8,69.3,61.3,53.8,100,98,93,30.39,30.32,1,0,1,0.00
2013-9-3,70.7,61.9,53.6,64.7,57.7,52.9,100,87,60,30.37,30.22,0,0,0,0.00
2013-9-4,72.1,60.7,49.6,61.3,55.6,49.4,100,85,54,30.23,29.95,0,0,0,0.00
2013-9-5,62.6,56.2,45.0,57.1,50.8,43.3,99,84,56,30.01,29.93,1,0,1,0.00
2013-9-6,63.0,50.5,38.1,50.8,44.9,37.9,100,83,48,29.96,29.87,2,0,2,0.00
2013-9-7,51.6,48.7,45.5,51.6,48.3,44.9,100,99,94,29.93,29.85,2,0,2,0.40
2013-9-8,59.5,51.9,44.1,57.0,50.4,43.8,100,95,81,30.00,29.88,2,1,2,0.07
2013-9-9,64.2,51.9,38.8,56.6,48.8,38.6,100,90,64,30.28,29.99,2,0,2,0.00
2013-9-10,62.4,54.1,45.0,57.9,51.6,44.7,100,92,71,30.38,30.28,2,0,2,0.00
2013-9-11,62.6,57.9,52.7,62.3,57.6,52.4,99,99,99,30.38,30.17,2,0,2,0.01
2013-9-12,64.9,60.8,51.4,64.7,60.5,51.0,99,99,99,30.17,30.01,2,0,2,0.00
2013-9-13,57.0,52.1,46.2,54.5,50.2,46.0,100,94,77,30.16,30.10,1,0,1,0.00
2013-9-14,60.4,51.2,42.3,54.6,47.0,42.0,99,87,58,30.17,30.04,0,0,0,0.00
2013-9-15,61.0,53.5,45.7,60.7,51.5,43.2,100,94,65,30.05,29.50,9,1,9,0.04
2013-9-16,55.9,48.4,43.5,56.0,45.7,43.3,100,90,73,29.67,29.58,12,0,12,0.06
2013-9-17,56.3,50.6,46.8,56.0,49.8,45.6,100,97,91,29.66,29.38,2,0,2,0.40
2013-9-18,55.8,50.3,46.2,54.1,48.5,44.3,100,94,75,29.90,29.51,6,0,6,0.01
2013-9-19,62.1,54.5,47.3,58.4,52.0,47.0,100,92,77,29.97,29.60,6,0,7,0.14
2013-9-20,61.7,54.5,47.8,55.1,51.6,46.0,100,91,70,30.09,29.96,0,0,0,0.00
2013-9-21,72.5,62.9,55.2,69.9,61.8,55.0,100,96,82,30.24,30.05,3,0,3,0.00
2013-9-22,71.1,63.3,55.6,65.4,60.9,55.3,100,92,74,30.33,30.24,4,0,4,0.01
2013-9-23,73.4,64.0,55.4,68.8,62.4,55.1,100,95,81,30.30,30.08,0,0,0,0.00
2013-9-24,74.3,61.5,57.4,65.6,60.2,57.1,100,96,73,30.08,29.91,4,0,4,0.15
2013-9-25,65.8,59.6,56.7,65.0,59.2,56.4,100,99,91,29.93,29.86,0,0,0,0.00
2013-9-26,62.6,58.9,56.7,62.3,58.7,56.4,99,99,99,29.99,29.91,0,0,0,0.00
2013-9-27,68.4,59.6,54.5,65.1,58.7,54.2,100,97,86,30.00,29.85,0,0,0,0.00
2013-9-28,64.0,58.2,54.7,61.8,57.6,54.4,100,98,90,29.85,29.73,2,0,2,0.00
2013-9-29,63.5,58.4,55.0,58.6,56.0,52.1,100,92,71,29.75,29.71,0,0,0,0.00
2013-9-30,62.8,58.1,53.8,61.7,57.7,53.5,100,99,91,29.72,29.63,0,0,0,0.01
2013-10-1,61.5,59.2,56.1,61.3,58.9,55.9,99,99,99,29.67,29.61,1,0,1,0.21
2013-10-2,66.6,61.9,58.6,66.3,61.6,58.2,99,99,99,29.62,29.57,0,0,0,0.07
2013-10-3,63.7,61.6,59.5,63.4,61.3,59.3,99,99,99,29.62,29.52,0,0,0,0.17
2013-10-4,61.9,58.1,51.8,61.6,57.9,51.5,99,99,99,29.96,29.55,2,0,2,0.01
2013-10-5,64.6,56.4,49.8,63.7,55.5,49.6,100,97,86,30.18,29.96,0,0,0,0.00
2013-10-6,66.4,60.4,53.4,66.1,60.2,53.2,99,99,99,30.19,30.13,0,0,0,0.01
2013-10-7,66.0,62.2,59.2,66.0,61.9,58.9,100,99,97,30.16,30.07,0,0,0,0.01
2013-10-8,60.8,57.6,52.5,59.4,57.1,52.3,100,98,90,30.33,30.11,2,0,2,0.00
2013-10-9,56.3,50.3,42.8,54.5,47.5,39.9,100,91,70,30.33,30.21,3,0,3,0.00
2013-10-10,54.1,45.3,37.8,45.9,41.1,37.5,100,86,60,30.42,30.30,2,0,2,0.00
2013-10-11,55.9,47.6,38.8,52.4,46.2,38.6,100,95,86,30.43,30.38,1,0,1,0.00
2013-10-12,56.1,52.3,49.6,53.6,51.1,48.5,100,96,85,30.39,30.19,1,0,1,0.00
2013-10-13,53.8,51.4,46.4,53.2,50.3,45.6,100,96,86,30.19,29.99,0,0,0,0.00
2013-10-14,56.8,50.3,43.0,52.7,47.5,42.0,100,91,71,29.99,29.89,1,0,1,0.00
2013-10-15,57.7,49.0,37.8,52.9,47.4,37.5,100,94,78,29.92,29.85,0,0,0,0.00
2013-10-16,56.1,52.0,48.7,55.9,51.5,48.5,100,98,90,29.87,29.55,1,0,1,0.45
2013-10-17,60.6,52.0,43.0,60.6,51.7,42.7,100,99,95,29.89,29.73,0,0,0,0.01
2013-10-18,56.5,54.6,51.6,56.2,54.3,51.4,99,99,99,29.89,29.47,0,0,0,0.14
2013-10-19,61.0,56.4,52.7,60.7,56.2,52.4,99,99,99,29.48,29.42,0,0,0,0.13
2013-10-20,58.1,53.4,49.1,57.8,53.1,48.8,99,99,99,29.55,29.28,3,0,3,0.11
2013-10-21,60.8,55.0,47.7,60.5,54.7,47.4,99,99,99,29.56,29.20,2,0,2,0.11
2013-10-22,62.2,58.0,54.9,62.3,57.7,54.4,100,99,94,29.22,29.04,1,0,1,0.00
2013-10-23,55.6,49.8,41.7,55.3,48.7,41.5,100,96,80,29.77,29.04,3,1,4,0.01
2013-10-24,60.4,50.6,39.9,58.5,50.0,39.7,100,98,88,29.84,29.61,1,0,1,0.00
2013-10-25,61.0,56.6,54.0,60.7,56.4,53.7,99,99,99,29.61,29.36,1,0,1,0.09
2013-10-26,55.0,51.3,48.4,54.7,51.0,48.1,100,99,93,29.52,29.18,2,0,2,0.07
2013-10-27,62.1,49.9,46.9,54.1,49.7,46.7,99,99,99,29.19,29.04,4,0,4,0.14
2013-10-28,53.8,48.8,46.2,51.9,47.8,46.0,100,96,81,29.61,29.01,4,0,4,0.00
2013-10-29,52.3,44.8,39.6,49.2,43.4,39.3,100,95,80,30.03,29.60,4,0,4,0.00
2013-10-30,55.6,48.0,40.3,55.3,47.8,40.0,99,99,99,30.03,29.70,4,0,4,0.00
2013-10-31,56.7,48.0,43.9,56.5,47.5,43.6,100,98,91,29.95,29.76,3,0,3,0.00
2013-11-1,53.4,44.3,36.3,53.2,43.5,36.1,100,97,84,29.78,29.59,2,0,2,0.00
2013-11-2,51.4,43.6,34.5,50.9,43.1,34.3,100,98,88,29.61,28.96,4,0,4,0.00
2013-11-3,50.2,43.3,38.1,47.1,42.3,37.9,100,96,84,29.51,29.28,0,0,0,0.00
2013-11-4,48.6,39.6,32.0,47.8,39.1,31.8,100,98,90,29.45,29.25,0,0,0,0.00
2013-11-5,50.5,46.1,44.1,48.4,45.3,43.5,100,97,88,29.43,29.18,0,0,0,0.17
2013-11-6,49.5,45.1,38.8,49.0,44.8,38.6,99,99,99,29.56,29.36,0,0,0,0.02
2013-11-7,51.3,42.5,37.2,49.6,42.0,37.0,100,98,82,29.64,29.56,0,0,0,0.13
2013-11-8,51.6,41.5,36.7,51.6,40.8,36.4,100,98,87,29.66,29.57,0,0,0,0.00
2013-11-9,49.6,39.9,34.0,49.4,39.7,33.7,99,99,96,29.75,29.58,0,0,0,0.00
2013-11-10,51.3,41.3,31.5,51.0,40.8,31.2,100,98,87,30.10,29.74,0,0,0,0.26
2013-11-11,55.9,52.9,48.0,55.7,52.6,47.8,99,99,99,30.19,29.87,0,0,0,0.02
2013-11-12,52.5,43.9,37.8,52.3,43.0,37.5,100,97,81,30.55,30.19,0,0,0,0.00
2013-11-13,49.1,43.9,37.6,49.1,43.4,37.3,100,98,91,30.55,30.10,0,0,0,0.02
2013-11-14,48.9,45.4,42.3,45.8,43.6,42.0,100,94,79,30.62,30.19,0,0,0,0.00
2013-11-15,51.3,47.4,42.6,51.0,47.0,42.4,100,99,95,30.62,30.51,0,0,0,0.00
2013-11-16,52.3,49.9,48.2,52.3,49.6,47.9,100,99,99,30.52,30.39,0,0,0,0.00
2013-11-17,53.4,51.2,48.6,53.2,50.9,48.1,99,99,99,30.40,29.96,0,0,0,0.18
2013-11-18,48.4,41.4,35.2,48.1,41.0,34.8,100,99,94,29.98,29.91,0,0,0,0.06
2013-11-19,43.3,36.4,32.0,43.1,36.1,31.8,100,99,93,30.17,29.95,0,0,0,0.00
2013-11-20,45.7,42.7,37.4,44.5,40.5,33.2,100,92,78,29.95,29.71,2,0,2,0.07
2013-11-21,41.5,37.3,31.1,35.7,33.2,28.8,100,85,75,30.15,29.88,0,0,0,0.01
2013-11-22,43.2,33.8,27.9,40.9,32.6,27.6,100,95,84,30.33,30.14,0,0,0,0.00
2013-11-23,45.1,37.7,27.7,44.9,37.4,27.5,99,99,99,30.46,30.31,0,0,0,0.00
2013-11-24,46.9,44.1,42.8,46.9,43.9,42.5,100,99,97,30.69,30.46,0,0,0,0.00
2013-11-25,45.3,42.7,41.4,44.6,42.4,41.1,100,99,94,30.80,30.68,0,0,0,0.01
2013-11-26,47.7,43.3,39.4,47.4,43.1,39.1,99,99,99,30.80,30.68,0,0,0,0.00
2013-11-27,49.3,45.5,39.7,49.0,45.3,39.5,99,99,99,30.70,30.61,0,0,0,0.00
2013-11-28,50.9,48.1,46.6,50.6,47.8,46.3,99,99,99,30.66,30.56,0,0,0,0.00
2013-11-29,47.3,45.6,41.9,47.0,45.0,41.6,100,98,91,30.56,30.40,0,0,0,0.00
2013-11-30,47.8,42.4,36.5,47.7,42.2,36.2,100,99,99,30.55,30.44,0,0,0,0.00
2013-12-1,49.8,46.5,44.6,49.6,46.3,44.3,100,99,97,30.60,30.53,0,0,0,0.00
2013-12-2,47.7,45.3,43.2,47.4,45.1,42.9,99,99,99,30.58,30.42,0,0,0,0.00
2013-12-3,48.0,45.2,41.9,47.8,44.9,41.6,99,99,99,30.43,30.26,0,0,0,0.00
2013-12-4,43.9,38.6,33.6,43.5,38.3,33.4,100,99,95,30.52,30.33,0,0,0,0.00
2013-12-5,50.2,44.2,37.6,50.2,42.4,37.3,100,94,79,30.41,30.07,3,0,3,0.04
2013-12-6,49.3,43.3,36.9,49.0,43.1,36.6,100,99,99,30.40,30.34,0,0,0,0.00
2013-12-7,48.4,45.1,42.4,48.1,44.9,42.2,99,99,99,30.35,30.13,0,0,0,0.01
2013-12-8,52.0,48.9,43.5,51.7,48.7,43.3,99,99,99,30.17,30.10,1,0,1,0.00
2013-12-9,51.3,48.5,44.1,51.3,48.2,43.8,100,99,93,30.24,30.16,0,0,0,0.00
2013-12-10,53.8,52.4,49.6,53.5,51.8,48.3,100,98,86,30.22,30.12,0,0,0,0.00
2013-12-11,53.4,51.1,49.6,53.2,50.1,48.3,100,96,92,30.23,29.99,0,0,0,0.00
2013-12-12,57.2,55.3,52.7,56.9,54.9,51.3,100,99,94,29.99,29.84,0,0,0,0.00
2013-12-13,55.4,49.2,39.0,55.1,47.9,37.9,100,95,82,30.05,29.71,0,0,0,0.00
2013-12-14,51.3,45.9,38.7,50.9,45.5,38.4,100,98,93,30.05,29.54,0,0,0,0.30
2013-12-18,43.5,41.7,38.3,43.5,41.2,38.0,100,98,94,29.13,28.85,0,0,0,1.82
2013-12-19,38.7,36.0,34.3,38.4,35.8,34.1,99,99,99,29.72,29.12,0,0,0,0.02
2013-12-20,51.3,43.6,34.5,51.0,43.4,34.3,100,99,99,29.88,29.52,0,0,0,0.09
2013-12-21,46.9,42.5,37.4,46.8,42.2,37.1,100,99,96,29.64,29.38,0,0,0,0.39
2013-12-22,39.0,35.9,33.6,38.8,35.6,33.4,99,99,99,29.69,29.46,0,0,0,0.25
2013-12-23,51.3,45.0,34.2,50.6,44.7,33.9,100,99,89,29.65,28.39,0,0,0,0.39
2013-12-24,41.2,37.5,34.3,38.8,35.5,-13.7,100,93,80,28.73,28.44,0,0,0,0.25
2013-12-25,39.6,34.7,31.6,39.3,34.5,31.4,99,99,99,29.14,28.72,0,0,0,0.00
2013-12-26,47.5,37.6,33.1,47.2,37.3,32.8,100,99,96,29.37,28.53,2,0,2,0.01